Flag for Brazil Weather past 2 weeks in Joinville, Santa Catarina, Brazil

Now
55 °F

Mostly cloudy.


Feels Like: 53 °F
Forecast: 61 / 67 °F
Wind: 8 mph from Southeast

Location: Curitiba Aeroporto

Current Time: Sep 5, 2015 at 12:52:59 AM

Latest Report: Sep 5, 2015 at 12:00 AM


Visibility: N/A

Pressure: 30.21 "Hg

Humidity: 94%

Dew point: 54 °F

Location of JoinvilleLocation

Historic Weather in Joinville — Graph

°F

Joinville temperature yesterday

Maximum temperature yesterday: 66 °F (at 2:00 PM)
Minimum temperature yesterday: 55 °F (at 8:00 PM)
Average temperature yesterday: 59 °F

Past Weeks' High & Low Weather Summary

 TemperatureHumidityPressure
High86 °F (Aug 30, 3:00 PM)100% (Aug 22, 5:00 AM)30.30 "Hg (Aug 22, 5:00 AM)
Low45 °F (Aug 28, 6:00 AM)12% (Aug 30, 3:00 PM)30.01 "Hg (Aug 23, 5:00 AM)
Average59 °F78%30.16 "Hg
* Reported Aug 20 11:00 PM — Sep 4 11:00 PM, Joinville, Weather by CustomWeather, © 2015

Note: Actual official high and low records may vary slightly from our data, if they occured in-between our weather recording intervals... More about our weather records

Advertising

Joinville weather history for previous 24 hours

 ConditionsComfort  
Time TempWeatherWind HumidityBarometerVisibility
11:00 PM
Fri, Sep 4
55 °FOvercast.7 mph94%30.21 "HgN/A
10:00 PM55 °FDrizzle. Fog.6 mph94%30.21 "Hg3 mi
9:00 PM55 °FPassing clouds.8 mph94%30.18 "Hg4 mi
8:00 PM55 °FPassing clouds.7 mph94%30.18 "Hg4 mi
7:00 PM57 °FFog.8 mph88%30.15 "Hg3 mi
6:00 PM59 °FScattered showers. Passing clouds.13 mph82%30.15 "HgN/A
5:00 PM63 °FPartly sunny.14 mph73%30.12 "HgN/A
4:00 PM64 °FPartly sunny.13 mph68%30.12 "HgN/A
3:00 PM64 °FPartly sunny.12 mph64%30.09 "HgN/A
2:00 PM66 °FPartly sunny.10 mph60%30.09 "HgN/A
1:00 PM64 °FPartly sunny.12 mph68%30.12 "HgN/A
12:00 PM64 °FBroken clouds.9 mph68%30.12 "HgN/A
11:00 AM61 °FPartly sunny.5 mph77%30.15 "HgN/A
10:00 AM61 °FPartly sunny.8 mph77%30.15 "HgN/A
9:00 AM59 °FBroken clouds.7 mph88%30.12 "HgN/A
8:00 AM57 °FBroken clouds.5 mph88%30.12 "HgN/A
7:00 AM57 °FBroken clouds.6 mph88%30.09 "HgN/A
6:00 AM57 °FPartly sunny.2 mph94%30.07 "HgN/A
5:00 AM57 °FPassing clouds.3 mph94%30.07 "HgN/A
4:00 AM57 °FPassing clouds.2 mph100%30.04 "HgN/A
3:00 AM59 °FPassing clouds.5 mph94%30.04 "HgN/A
2:00 AM59 °FPassing clouds.6 mph94%30.04 "HgN/A
1:00 AM59 °FPassing clouds.2 mph94%30.07 "HgN/A
12:00 AM59 °FPassing clouds.2 mph94%30.07 "HgN/A
Weather by CustomWeather, © 2015

See weather overviewHow to use our weather pages